Regional Weather Roundup
Issued by NWS Little Rock, AR

Home | Current Version | Previous Version | Graphics & Text | Print | Product List | Glossary On
Versions: 1 2 3 4 5 6 7 8 9 10 11 12 13 14 15 16 17 18 19 20 21 22 23 24 25 26 27 28 29 30 31 32 33 34 35 36 37 38 39 40 41 42 43 44 45 46 47 48 49 50
000
ASUS44 KLZK 291705
RWRLZK

WEATHER ROUNDUP FOR ARKANSAS
NATIONAL WEATHER SERVICE LITTLE ROCK AR
1200 PM CDT MON SEP 29 2014

NOTE: "FAIR" INDICATES FEW OR NO CLOUDS BELOW 12,000 FEET WITH NO
SIGNIFICANT WEATHER AND/OR OBSTRUCTIONS TO VISIBILITY.

ARZ001-003-010-029-291800-
NORTHWEST ARKANSAS

CITY           SKY/WX    TMP DP  RH WIND       PRES   REMARKS
FAYETTEVILLE   SUNNY     80  59  48 VRB5      30.09F
FORT SMITH     SUNNY     82  62  50 E3        30.05F
HARRISON       SUNNY     80  60  50 CALM      30.09F
BENTONVILLE    MOSUNNY   81  61  50 S3        30.11S
ROGERS         SUNNY     78  59  51 CALM      30.10F
SILOAM SPGS    SUNNY     81  61  50 CALM      30.10S
HIGHFILL       SUNNY     80  61  52 CALM      30.09F
SPRINGDALE     SUNNY     79  61  53 CALM      30.11F
$$

ARZ004-005-016-291800-
NORTH CENTRAL ARKANSAS

CITY           SKY/WX    TMP DP  RH WIND       PRES   REMARKS
BATESVILLE     SUNNY     82  63  51 NE5       30.05F
FLIPPIN        SUNNY     81  57  44 N3        30.08S
MTN HOME       SUNNY     81  63  54 VRB3      30.07F
$$

ARZ040-041-291800-
WEST CENTRAL ARKANSAS

CITY           SKY/WX    TMP DP  RH WIND       PRES   REMARKS
MENA           SUNNY     81  63  54 CALM      30.07F
MOUNT IDA      SUNNY     81  62  52 CALM      30.04F
$$

ARZ009-017-025-026-028-291800-
NORTHEAST ARKANSAS

CITY           SKY/WX    TMP DP  RH WIND       PRES   REMARKS
CORNING          N/A     82  59  44 NE10      30.05F
JONESBORO      MOSUNNY   86  59  39 NE7       30.03F HX  85
NEWPORT        CLOUDY    84  62  47 N8G16     30.05F
WALNUT RIDGE   SUNNY     82  63  51 NE8       30.04S
BLYTHEVILLE    SUNNY     87  61  41 N9        30.03F HX  87
NW BLYTHEVILLE SUNNY     82  61  47 NE8       30.04F
$$

ARZ022-023-033-042-044-291800-
CENTRAL ARKANSAS

CITY           SKY/WX    TMP DP  RH WIND       PRES   REMARKS
LITTLE ROCK    MOSUNNY   85  60  42 NE8       30.04F HX  85
N LITTLE ROCK  MOSUNNY   83  65  53 NE8       30.04F HX  85
JACKSONVILLE   SUNNY     85  61  44 E12       30.04F HX  85
SEARCY         SUNNY     85  62  46 NE8       30.05F HX  85
HOT SPRINGS    MOSUNNY   83  59  44 SE8       30.04F
RUSSELLVILLE   SUNNY     83  62  49 CALM      30.05F
CLINTON        FAIR      84  61  45 CALM      30.05F
$$

ARZ036-291800-
EAST ARKANSAS

CITY           SKY/WX    TMP DP  RH WIND       PRES   REMARKS
WEST MEMPHIS   SUNNY     83  64  52 NE9       30.02F
$$

ARZ050-053-066-070-073-291800-
SOUTHWEST ARKANSAS

CITY           SKY/WX    TMP DP  RH WIND       PRES   REMARKS
ARKADELPHIA    FAIR      84  64  50 NE7       30.03F HX  85
CAMDEN         SUNNY     86  59  39 NE7       30.02F HX  85
TEXARKANA      MOSUNNY   83  63  50 E9        30.03F
EL DORADO      SUNNY     84  64  50 NE13      30.01F HX  85
DE QUEEN       SUNNY     82  63  52 E8        30.02F
$$

ARZ056-057-069-291800-
SOUTHEAST ARKANSAS

CITY           SKY/WX    TMP DP  RH WIND       PRES   REMARKS
PINE BLUFF     MOSUNNY   84  61  45 MISG      30.03F
STUTTGART      SUNNY     82  64  54 NE8       30.04F
MONTICELLO     SUNNY     85  60  42 NE9G21    30.01F HX  85

$$





USA.gov is the U.S. government's official web portal to all federal, state and local government web resources and services.